Regional Weather Roundup
Issued by NWS Charleston, WV

Home | Current Version | Previous Version | Text Only | Print | Product List | Glossary Off
Versions: 1 2 3 4 5 6 7 8 9 10 11 12 13 14 15 16 17 18 19 20 21 22 23 24 25 26 27 28

000
ASUS41 KRLX 151610
RWRRLX
West Virginia Regional Weather Roundup
National Weather Service Charleston WV
1100 AM EST MON JAN 15 2018

Note: "fair" indicates few or no clouds below 12,000 feet with no
significant weather and/or obstructions to visibility.

WVZ003-151700-
Northern Panhandle of West Virginia

CITY           SKY/WX    TMP DP  RH WIND       PRES   REMARKS
WHEELING       LGT SNOW  18  14  84 SE10      30.37F FOG     WCI   6
$$

WVZ009-151700-
Northwest West Virginia

CITY           SKY/WX    TMP DP  RH WIND       PRES   REMARKS
PARKERSBURG    PTSUNNY   24  16  71 SE7       30.41F
$$

WVZ006-151700-
Western West Virginia

CITY           SKY/WX    TMP DP  RH WIND       PRES   REMARKS
HUNTINGTON     CLOUDY    28  19  69 S5        30.36F
$$

WVZ015-151700-
West Central West Virginia

CITY           SKY/WX    TMP DP  RH WIND       PRES   REMARKS
CHARLESTON     CLOUDY    26  19  74 CALM      30.39F
$$

WVZ022-031-151700-
North Central West Virginia

CITY           SKY/WX    TMP DP  RH WIND       PRES   REMARKS
CLARKSBURG     LGT SNOW  22  17  81 VRB3      30.42F
MORGANTOWN     CLOUDY    24   9  52 SE7       30.42F
$$

WVZ025-035-042-045-151700-
Southern West Virginia

CITY           SKY/WX    TMP DP  RH WIND       PRES   REMARKS
BECKLEY        PTSUNNY   24  11  57 SE8       30.34F
LOGAN          CLOUDY    27  14  59 S8G15     30.36F
BLUEFIELD      CLOUDY    22  10  60 E3        30.35F
LEWISBURG        N/A     20   8  58 CALM      30.41F
$$

WVZ047-151700-
Northern Mountains of West Virginia

CITY           SKY/WX    TMP DP  RH WIND       PRES   REMARKS
ELKINS         CLOUDY    18  15  88 CALM      30.39F
$$

WVZ052-151700-
Eastern Panhandle of West Virginia

CITY           SKY/WX    TMP DP  RH WIND       PRES   REMARKS
MARTINSBURG      N/A     20   7  57 CALM      30.57F
PETERSBURG     CLOUDY    16   6  66 CALM      30.54F
$$




USA.gov is the U.S. government's official web portal to all federal, state and local government web resources and services.